User: anonymous   Login
Location: El Carrer d�Abaix
(41.5797°N, 2.1791°E)
Time: 12:38:13
(UTC+00:00)
Language:

STARLINK-1378 - Orbit

View from above orbital plane
View from above orbital plane
View from above satellite
View from above satellite

Ground track
Ground track

The orbit data is extracted from the following two-line orbital elements,

1 45548C 20025T   21138.16544413  .00000607  00000-0  40710-4 0  1382
2 45548  53.0559  71.9721 0001260  59.3413  32.8986 15.06390291    19
Epoch (UTC): 18 May 2021 03:58:14
Eccentricity: 0.0001260
inclination: 53.0559°
perigee height: 546 km
apogee height: 548 km
right ascension of ascending node: 71.9721°
argument of perigee: 59.3413°
revolutions per day: 15.06390291
mean anomaly at epoch: 32.8986°
orbit number at epoch: 1

The dashed part of the orbit path shows where the satellite is in the earth's shadow,  

DLR